Regional Weather Roundup
Issued by NWS

Home | Current Version | Previous Version | Graphics & Text | Print | Product List | Glossary On
Versions: 1 2 3 4 5 6 7 8 9 10 11 12 13 14 15 16 17 18 19 20 21 22 23 24 25 26 27 28 29 30 31 32 33 34 35 36 37 38 39 40 41 42 43 44 45 46 47 48 49 50
000
ASUS43 KFSD 180710
RWRSD

WEATHER ROUNDUP FOR SOUTH DAKOTA
NATIONAL WEATHER SERVICE SIOUX FALLS SD
200 AM CDT THU SEP 18 2014

NOTE: "FAIR" INDICATES FEW OR NO CLOUDS BELOW 12,000 FEET WITH NO
SIGNIFICANT WEATHER AND/OR OBSTRUCTIONS TO VISIBILITY.


SDZ001>005-009-010-012>017-180800-
NORTHWEST AND NORTH CENTRAL SOUTH DAKOTA

CITY           SKY/WX    TMP DP  RH WIND       PRES   REMARKS
BUFFALO          N/A     58  49  72 SE12      29.86F
FAITH            N/A     56  46  69 SE14      29.95F
MOBRIDGE       CLEAR     54  47  77 E12       29.95F
$$

SDZ012>016-024>037-041>051-057-063-072>074-180800-
SOUTHWEST AND SOUTH CENTRAL SOUTH DAKOTA

CITY           SKY/WX    TMP DP  RH WIND       PRES   REMARKS
RAPID CTY ARPT CLEAR     57  51  80 SE6       29.96F
PIERRE         CLEAR     52  46  80 E7        29.94S
CUSTER         PTCLDY    53  48  83 N3        30.06F
ELLSWORTH AFB  CLEAR     58  53  81 S7        29.96F
PHILIP         PTCLDY    58  54  86 E3        29.93F
PINE RIDGE     CLEAR     58  54  86 NE9       29.95F
WINNER         FAIR      63  56  78 SE15      29.93F
$$

SDZ004>011-016>023-039-040-180800-
NORTHEAST SOUTH DAKOTA

CITY           SKY/WX    TMP DP  RH WIND       PRES   REMARKS
ABERDEEN       CLEAR     48  46  93 NE5       29.99S
WATERTOWN      CLEAR     56  48  74 E3        29.99S
SISSETON         N/A     45  44  97 NW3       29.99S
$$

SDZ017-020-022-023-036>040-048>070-180800-
SOUTHEAST SOUTH DAKOTA

CITY           SKY/WX    TMP DP  RH WIND       PRES   REMARKS
SIOUX FALLS    PTCLDY    59  55  87 E5        29.98S
HURON          CLEAR     56  52  86 E5        29.97R
CHAMBERLAIN    CLEAR     56  53  88 E7        29.95S
MITCHELL       CLEAR     58  56  93 SE3       29.97R
YANKTON        PTCLDY    55  54  94 E5        29.97S
$$

ABBREVIATIONS USED IN REMARKS
   TC - TEMPERATURE IN CELSIUS
  WCI - WIND CHILL INDEX
   HX - HEAT INDEX
  VSB - VISIBILITY



USA.gov is the U.S. government's official web portal to all federal, state and local government web resources and services.